Home > Weather > Vienna > Past weeks

Flag for Austria Weather for the Past 2 Weeks in Vienna, Vienna, Austria

Now
42 °F

Passing clouds.


Feels Like: 42 °F
Forecast: 30 / 58 °F
Wind: 1 mph from South

Location: Wien / Hohe Warte

Current Time: Apr 28, 2016 at 10:49:17 PM

Latest Report: Apr 28, 2016 at 10:00 PM


Visibility: 25 mi

Pressure: 30.10 "Hg

Humidity: 75%

Dew Point: 34 °F

Location of ViennaLocation

Historic Weather in Vienna — Graph

°F

Vienna Temperature Yesterday

Maximum temperature yesterday: 45 °F (at 12:00 AM)
Minimum temperature yesterday: 40 °F (at 10:00 PM)
Average temperature yesterday: 42 °F

High & Low Weather Summary for the Past Weeks

 TemperatureHumidityPressure
High72 °F (Apr 17, 3:00 PM)93% (Apr 14, 2:00 AM)30.38 "Hg (Apr 14, 2:00 AM)
Low33 °F (Apr 26, 6:00 AM)29% (Apr 20, 5:00 PM)29.57 "Hg (Apr 26, 7:00 PM)
Average52 °F63%29.90 "Hg
* Reported Apr 13 9:00 PM — Apr 28 9:00 PM, Vienna, Weather by CustomWeather, © 2016

Note: Actual official high and low records may vary slightly from our data, if they occured in-between our weather recording intervals... More about our weather records

Advertising

Vienna Weather History for the Previous 24 Hours

Scroll right to see more
 ConditionsComfort  
Time TempWeatherWind HumidityBarometerVisibility
9:00 PM
Thu, Apr 28
43 °FPassing clouds.2 mph71%30.09 "Hg25 mi
8:00 PM46 °FPassing clouds.3 mph62%30.06 "Hg31 mi
7:00 PM48 °FPassing clouds.3 mph58%30.04 "Hg31 mi
6:00 PM50 °FScattered clouds.5 mph49%30.03 "Hg31 mi
5:00 PM51 °FScattered clouds.3 mph52%30.02 "Hg34 mi
4:00 PM49 °FOvercast.6 mph53%30.03 "Hg34 mi
2:00 PM48 °FOvercast.7 mph53%30.05 "Hg31 mi
1:00 PM50 °FOvercast.7 mph47%30.05 "Hg28 mi
12:00 PM51 °FOvercast.6 mph44%30.04 "Hg28 mi
11:00 AM51 °FPartly sunny.5 mph46%30.05 "Hg28 mi
7:00 AM36 °FSunny.1 mph80%30.04 "Hg31 mi
6:00 AM34 °FSunny.2 mph84%30.03 "Hg37 mi
5:00 AM35 °FChilly.1 mph78%30.03 "HgN/A
4:00 AM38 °FClear.2 mph71%30.01 "Hg28 mi
2:00 AM40 °FClear.7 mph63%30.00 "Hg28 mi
10:00 PM
Wed, Apr 27
40 °FPassing clouds.3 mph69%29.96 "Hg25 mi
Weather by CustomWeather, © 2016

See weather overviewHow to use our weather pages